| time (UTC) | temp F | wind direction | speed MPH | gust MPH | rain 1hr in | rain 24hr in | rain mn in | humidity % | barometer mb |
| 20260906211603 | 69 | 112 | 2.0 | 6.0 | 0.00 | 0.00 | 0.00 | 68 | 1018.8 |
| 20260906210107 | 70 | 0 | 2.0 | 6.0 | 0.00 | 0.00 | 0.00 | 67 | 1018.9 |
| 20260906204605 | 70 | 136 | 0.0 | 3.0 | 0.00 | 0.00 | 0.00 | 72 | 1018.8 |
| 20260906203102 | 69 | 177 | 0.0 | 5.0 | 0.00 | 0.00 | 0.00 | 72 | 1018.7 |
| 20260906201620 | 69 | 0 | 0.0 | 7.0 | 0.00 | 0.00 | 0.00 | 71 | 1018.6 |
| 20260906200104 | 70 | 158 | 1.0 | 5.0 | 0.00 | 0.00 | 0.00 | 69 | 1018.7 |
| 20260906194559 | 71 | 226 | 1.0 | 4.0 | 0.00 | 0.00 | 0.00 | 68 | 1018.8 |
| 20260906193102 | 71 | 154 | 1.0 | 5.0 | 0.00 | 0.00 | 0.00 | 68 | 1018.7 |
| 20260906191559 | 70 | 221 | 3.0 | 7.0 | 0.00 | 0.00 | 0.00 | 71 | 1018.6 |
| 20260906190113 | 71 | 143 | 2.0 | 4.0 | 0.00 | 0.00 | 0.00 | 67 | 1018.6 |
| 20260906184604 | 71 | 172 | 2.0 | 8.0 | 0.00 | 0.00 | 0.00 | 72 | 1018.6 |
| 20260906183106 | 71 | 141 | 2.0 | 5.0 | 0.00 | 0.00 | 0.00 | 68 | 1018.7 |
| 20260906181602 | 72 | 195 | 2.0 | 6.0 | 0.00 | 0.00 | 0.00 | 69 | 1018.8 |
| 20260906180113 | 71 | 187 | 2.0 | 7.0 | 0.00 | 0.00 | 0.00 | 68 | 1018.8 |
| 20260906174600 | 71 | 36 | 3.0 | 6.0 | 0.00 | 0.00 | 0.00 | 67 | 1018.8 |
| 20260906173101 | 71 | 208 | 3.0 | 9.0 | 0.00 | 0.00 | 0.00 | 69 | 1018.8 |
| 20260906171600 | 72 | 176 | 1.0 | 5.0 | 0.00 | 0.00 | 0.00 | 68 | 1019.0 |
| 20260906170106 | 72 | 114 | 2.0 | 5.0 | 0.00 | 0.00 | 0.00 | 68 | 1018.8 |
| 20260906164600 | 71 | 131 | 1.0 | 8.0 | 0.00 | 0.00 | 0.00 | 69 | 1018.6 |
| 20260906163102 | 70 | 150 | 3.0 | 10.0 | 0.00 | 0.00 | 0.00 | 68 | 1018.7 |
| 20260906161601 | 69 | 212 | 3.0 | 8.0 | 0.00 | 0.00 | 0.00 | 70 | 1018.7 |
| 20260906160112 | 70 | 210 | 2.0 | 6.0 | 0.00 | 0.00 | 0.00 | 72 | 1018.7 |
| 20260906154604 | 69 | 182 | 2.0 | 6.0 | 0.00 | 0.00 | 0.00 | 78 | 1018.8 |
| 20260906153106 | 69 | 178 | 3.0 | 8.0 | 0.00 | 0.00 | 0.00 | 75 | 1018.5 |
| 20260906151557 | 69 | 216 | 3.0 | 7.0 | 0.00 | 0.00 | 0.00 | 78 | 1018.6 |
| 20260906150106 | 68 | 189 | 1.0 | 6.0 | 0.00 | 0.00 | 0.00 | 77 | 1018.6 |
| 20260906144602 | 69 | 295 | 4.0 | 9.0 | 0.00 | 0.00 | 0.00 | 80 | 1018.4 |
| 20260906143059 | 68 | 172 | 1.0 | 5.0 | 0.00 | 0.00 | 0.00 | 84 | 1018.5 |
| 20260906141601 | 67 | 155 | 1.0 | 5.0 | 0.00 | 0.00 | 0.00 | 88 | 1018.3 |
| 20260906140059 | 66 | 203 | 1.0 | 10.0 | 0.00 | 0.00 | 0.00 | 88 | 1018.0 |
| 20260906134604 | 66 | 136 | 1.0 | 3.0 | 0.00 | 0.00 | 0.00 | 91 | 1017.8 |
| 20260906133123 | 66 | 128 | 0.0 | 6.0 | 0.00 | 0.00 | 0.00 | 93 | 1017.8 |
| 20260906131600 | 65 | 212 | 2.0 | 8.0 | 0.00 | 0.00 | 0.00 | 94 | 1017.8 |
| 20260906130058 | 64 | 181 | 1.0 | 5.0 | 0.00 | 0.00 | 0.00 | 95 | 1017.9 |
| 20260906124600 | 64 | 179 | 1.0 | 5.0 | 0.00 | 0.00 | 0.00 | 97 | 1017.8 |
| 20260906123103 | 64 | 0 | 0.0 | 3.0 | 0.00 | 0.00 | 0.00 | 97 | 1017.6 |
| 20260906121605 | 63 | 164 | 0.0 | 4.0 | 0.00 | 0.00 | 0.00 | 97 | 1017.5 |
| 20260906114609 | 60 | 0 | 0.0 | 0.0 | 0.00 | 0.00 | 0.00 | 97 | 1017.1 |
| 20260906113059 | 58 | 0 | 0.0 | 0.0 | 0.00 | 0.00 | 0.00 | 97 | 1017.0 |
| 20260906111600 | 57 | 0 | 0.0 | 0.0 | 0.00 | 0.00 | 0.00 | 96 | 1016.8 |
| 20260906104623 | 56 | 0 | 0.0 | 0.0 | 0.00 | 0.00 | 0.00 | 96 | 1016.4 |
| 20260906103101 | 57 | 0 | 0.0 | 0.0 | 0.00 | 0.00 | 0.00 | 96 | 1016.3 |
| 20260906101603 | 57 | 0 | 0.0 | 0.0 | 0.00 | 0.00 | 0.00 | 96 | 1016.1 |
| 20260906100058 | 57 | 0 | 0.0 | 0.0 | 0.00 | 0.00 | 0.00 | 96 | 1016.0 |
| 20260906094600 | 57 | 0 | 0.0 | 0.0 | 0.00 | 0.00 | 0.00 | 96 | 1015.9 |
| 20260906093124 | 57 | 0 | 0.0 | 0.0 | 0.00 | 0.00 | 0.00 | 96 | 1015.8 |
| 20260906091600 | 57 | 0 | 0.0 | 0.0 | 0.00 | 0.00 | 0.00 | 96 | 1015.6 |
| 20260906084603 | 57 | 0 | 0.0 | 0.0 | 0.00 | 0.00 | 0.00 | 95 | 1015.2 |
| 20260906083101 | 58 | 0 | 0.0 | 0.0 | 0.00 | 0.00 | 0.00 | 95 | 1015.2 |
| 20260906081602 | 58 | 0 | 0.0 | 0.0 | 0.00 | 0.00 | 0.00 | 95 | 1015.1 |
| 20260906080109 | 58 | 0 | 0.0 | 0.0 | 0.00 | 0.00 | 0.00 | 96 | 1015.1 |
| 20260906074602 | 59 | 0 | 0.0 | 0.0 | 0.00 | 0.00 | 0.00 | 95 | 1015.0 |
| 20260906073101 | 60 | 0 | 0.0 | 0.0 | 0.00 | 0.00 | 0.00 | 95 | 1014.8 |
| 20260906071602 | 60 | 0 | 0.0 | 0.0 | 0.00 | 0.00 | 0.00 | 95 | 1014.9 |
| 20260906070105 | 60 | 0 | 0.0 | 0.0 | 0.00 | 0.00 | 0.00 | 95 | 1015.0 |
| 20260906064556 | 61 | 0 | 0.0 | 0.0 | 0.00 | 0.00 | 0.00 | 95 | 1015.0 |
| 20260906063102 | 61 | 0 | 0.0 | 0.0 | 0.00 | 0.00 | 0.00 | 95 | 1015.1 |
| 20260906061605 | 61 | 0 | 0.0 | 0.0 | 0.00 | 0.00 | 0.00 | 95 | 1015.0 |
| 20260906054608 | 61 | 0 | 0.0 | 0.0 | 0.00 | 0.00 | 0.00 | 95 | 1015.1 |
| 20260906053100 | 61 | 0 | 0.0 | 0.0 | 0.00 | 0.00 | 0.00 | 95 | 1015.1 |
| 20260906051558 | 61 | 0 | 0.0 | 0.0 | 0.00 | 0.00 | 0.00 | 95 | 1015.2 |
| 20260906050121 | 61 | 0 | 0.0 | 0.0 | 0.00 | 0.00 | 0.00 | 94 | 1015.1 |
| 20260906044603 | 61 | 0 | 0.0 | 1.0 | 0.00 | 0.00 | 0.00 | 95 | 1015.0 |
| 20260906043059 | 60 | 153 | 0.0 | 1.0 | 0.00 | 0.00 | 0.00 | 94 | 1015.0 |
| 20260906041600 | 60 | 0 | 0.0 | 0.0 | 0.00 | 0.00 | 0.00 | 94 | 1014.9 |
| 20260906040133 | 61 | 0 | 0.0 | 0.0 | 0.00 | 0.00 | 0.00 | 93 | 1014.9 |
| 20260906034557 | 61 | 0 | 0.0 | 0.0 | 0.00 | 0.00 | 0.00 | 93 | 1014.8 |
| 20260906033111 | 62 | 0 | 0.0 | 0.0 | 0.00 | 0.00 | 0.00 | 93 | 1014.7 |
| 20260906031602 | 61 | 0 | 0.0 | 0.0 | 0.00 | 0.00 | 0.00 | 93 | 1014.7 |
| 20260906030100 | 61 | 0 | 0.0 | 0.0 | 0.00 | 0.00 | 0.00 | 92 | 1014.6 |
| 20260906024616 | 62 | 0 | 0.0 | 0.0 | 0.00 | 0.00 | 0.00 | 92 | 1014.7 |
| 20260906023104 | 61 | 0 | 0.0 | 0.0 | 0.00 | 0.00 | 0.00 | 92 | 1014.6 |
| 20260906021600 | 61 | 0 | 0.0 | 0.0 | 0.00 | 0.00 | 0.00 | 91 | 1014.5 |
| 20260906020100 | 61 | 0 | 0.0 | 0.0 | 0.00 | 0.00 | 0.00 | 90 | 1014.5 |
| 20260906014611 | 62 | 0 | 0.0 | 0.0 | 0.00 | 0.00 | 0.00 | 89 | 1014.5 |
| 20260906013103 | 62 | 0 | 0.0 | 0.0 | 0.00 | 0.00 | 0.00 | 89 | 1014.3 |
| 20260906011605 | 63 | 0 | 0.0 | 0.0 | 0.00 | 0.00 | 0.00 | 88 | 1014.4 |
| 20260906004559 | 64 | 0 | 0.0 | 0.0 | 0.00 | 0.00 | 0.00 | 85 | 1014.3 |
| 20260906003101 | 65 | 0 | 0.0 | 0.0 | 0.00 | 0.00 | 0.00 | 83 | 1014.1 |
| 20260906001559 | 66 | 0 | 0.0 | 0.0 | 0.00 | 0.00 | 0.00 | 81 | 1014.3 |
| 20260906000107 | 67 | 0 | 0.0 | 0.0 | 0.00 | 0.00 | 0.00 | 77 | 1014.4 |
| 20260905234613 | 69 | 0 | 0.0 | 0.0 | 0.00 | 0.00 | 0.00 | 74 | 1014.3 |
| 20260905233101 | 72 | 0 | 0.0 | 0.0 | 0.00 | 0.00 | 0.00 | 70 | 1014.2 |
| 20260905231559 | 74 | 0 | 0.0 | 0.0 | 0.00 | 0.00 | 0.00 | 70 | 1014.3 |
| 20260905230130 | 75 | 0 | 0.0 | 0.0 | 0.00 | 0.00 | 0.00 | 68 | 1014.2 |
| 20260905224602 | 76 | 0 | 0.0 | 0.0 | 0.00 | 0.00 | 0.00 | 69 | 1014.4 |
| 20260905223100 | 76 | 153 | 0.0 | 1.0 | 0.00 | 0.00 | 0.00 | 69 | 1014.3 |
| 20260905221603 | 75 | 0 | 0.0 | 2.0 | 0.00 | 0.00 | 0.00 | 73 | 1014.2 |
| 20260905220110 | 75 | 153 | 1.0 | 5.0 | 0.00 | 0.00 | 0.00 | 69 | 1014.2 |
| 20260905214559 | 75 | 186 | 1.0 | 4.0 | 0.00 | 0.00 | 0.00 | 69 | 1014.1 |
| 20260905213059 | 75 | 162 | 0.0 | 3.0 | 0.00 | 0.00 | 0.00 | 71 | 1013.8 |